www.pogodaiklimat.ru

Погода и климат >> Архив погоды >> Украина >> Помошная


ПОГОДА в Помошной

  • Прогноз погоды в Помошной
  • Монитор погоды в Помошной

АРХИВ ПОГОДЫ в Помошной

Время (UTC), дата Ветер
(напр.,м/с)
 
Видим.   Явления Облачность Т
(С)
Тd
(С)
f
(%)
Тe
(С)
Тes
(С)
Комфортность P
(гПа)
Po
(гПа)
Тmin
(С)
Tmax
(С)
R
(мм)
R24
(мм)
S
(см)
03 20.03 штиль 0 10 км 10/10 600 м
[Sc]
+4.0 0.0 75 +3 +3 1025.0 998.7
06 20.03 В 1 10 км в посл. час ливневой дождь 10/10 600 м
[Sc]
+5.0 +2.3 83 +4 +4 1025.9 999.7 +1.9 0.4
09 20.03 З 1 10 км 10/10 600 м
[Sc]
+7.1 +1.5 68 +6 +6 1026.9 1001.3
12 20.03 С 5 10 км 10/10 600 м
[Cb cap]
+7.1 +4.3 82 +3 +3 1027.6 1001.6
15 20.03 С 5 10 км 10/10 600 м
[Cb cap]
+6.2 +2.8 79 +2 +2 1028.6 1002.7
18 20.03 С 2 10 км ясно +3.9 +2.1 88 +1 +1 1030.1 1003.7 +7.5
21 20.03 С 3 10 км ясно +2.5 -0.2 82 -2 -2 1030.8 1004.0
00 21.03 ЮЗ 2 10 км ясно -0.2 -2.0 88 -4 -4 1031.1 1004.0
03 21.03 СЗ 1 10 км ясно -0.3 -3.0 82 -2 -2 1030.9 1004.0
06 21.03 З 2 10 км 4/0
[Ci fib]
+1.5 -3.6 69 -2 +1 1031.1 1004.4 -0.5
09 21.03 З 5 10 км 8/4 600 м
[Cu hum Ci fib]
+8.7 -3.6 42 +6 +9 1029.5 1004.0
12 21.03 З 5 10 км 10/6 600 м
[Sc Cc]
+10.9 -4.7 33 +9 +10 1027.0 1001.3
15 21.03 СЗ 5 10 км 10/10 600 м
[Sc]
+9.3 -1.2 48 +6 +6 1026.6 1001.3
18 21.03 СЗ 3 10 км 9/9 600 м
[Sc]
+6.8 +1.9 71 +4 +4 1027.9 1001.9 +11.3
21 21.03 ЮВ 1 10 км 8/0
[Ac trans Ci fib]
+4.6 +1.5 80 +3 +3 1028.4 1002.7
00 22.03 ЮВ 1 10 км 8/0
[Ac trans Ci fib]
+3.8 +2.0 88 +2 +2 1027.7 1001.4
03 22.03 СЗ 1 4000 м дымка 10/0
[As op]
+2.6 +1.6 93 +1 +1 1027.2 1001.3
06 22.03 З 1 4000 м дымка 9/0
[Ac und]
+3.2 +2.7 97 +1 +3 1026.6 1000.0 +1.5
09 22.03 З 4 10 км 10/0
[Ac und]
+10.7 +2.6 57 +9 +11 1023.5 998.7
12 22.03 СЗ 6 10 км н/о +10.5 +6.2 75 +7 +8 1021.2 996.0
15 22.03 З 4 10 км 8/0
[Ac und]
+10.5 +5.5 71 +8 +8 1019.4 994.7
18 22.03 З 6 10 км 9/0
[Ac und]
+10.7 +4.3 65 +8 +8 1020.0 994.5 +11.7
21 22.03 СЗ 4 10 км ясно +9.1 +4.1 71 +6 +6 1021.6 996.0
00 23.03 СЗ 3 10 км ясно +4.8 -2.8 58 +2 +2 1021.6 996.0
03 23.03 СЗ 3 10 км ясно +0.6 -8.5 50 -3 -3 1021.4 994.7
06 23.03 С 5 10 км ясно +2.0 -7.3 50 -3 -1 1022.0 995.6 0.0
09 23.03 СЗ 7 10 км 4/4 1000 м
[Cu med, cong]
+5.9 -9.2 33 +2 +3 1021.4 996.0
12 23.03 С 7 10 км 8/8 600 м
[Cb cap]
+6.2 -9.2 32 +2 +2 1021.4 995.5
15 23.03 С 5 10 км 10/10 600 м
[Cb cap]
+5.4 -8.1 37 +2 +2 1022.4 997.3
18 23.03 С 2 10 км 10/10 600 м
[Sc]
+4.3 -5.1 50 +2 +2 1023.3 997.2 +7.3
21 23.03 С 2 10 км 10/10 600 м
[Sc]
+3.6 -4.1 57 +1 +1 1023.7 997.3
00 24.03 СЗ 2 10 км 1/0
[Ci fib]
+2.8 -3.8 62 0 0 1022.8 996.5
03 24.03 СЗ 1 9 баллов 77 996.0
06 24.03 штиль 0 10 км 9/0
[Ac trans Ci fib]
+0.6 -3.7 73 -0 +3 1022.0 995.5 -2.4
09 24.03 З 3 10 км 9/3 600 м
[Sc Ac trans Ci fib]
+7.3 -5.4 40 +5 +9 1019.3 993.3
12 24.03 З 4 10 км 10/10 1000 м
[Sc]
+10.4 -7.8 27 +9 +9 1016.8 991.4
15 24.03 З 3 10 км 9/9 600 м
[Cb cap]
+10.1 -7.4 28 +9 +9 1015.2 990.7
18 24.03 З 2 10 км ясно +7.4 -6.0 38 +6 +6 1016.0 990.3 +10.4
21 24.03 штиль 0 10 км ясно +2.8 -2.4 69 +2 +2 1016.4 990.7
00 25.03 штиль 0 10 км ясно +0.6 -3.7 73 1015.8 989.3
03 25.03 СЗ 1 ясно 79 988.0
06 25.03 Ю 1 10 км 8/0
[Ac trans]
+5.2 +0.6 72 +4 +6 1013.0 987.2 -0.4
09 25.03 Ю 4 10 баллов 47 986.7
12 25.03 ЮВ 4 10 км 10/10 600 м
[Sc]
+10.7 -1.7 42 +9 +9 1009.4 984.1
15 25.03 СВ 2 в посл. час дождь н/о 91 984.0
18 25.03 СВ 2 10 км {дождь} 6/0
[Ci fib]
+4.6 +3.6 93 +2 +2 1008.8 982.9 +11.1 2
21 25.03 С 1 дымка ясно 94 984.0
00 26.03 З 2 500 м туман ?/? +1.6 +1.6 100 -2 -2 1011.0 984.8
03 26.03 С 1 дымка 10 баллов 94 986.7
06 26.03 СЗ 2 4000 м дымка {туман} 10/0
[Cs]
+1.9 +1.1 94 -2 +1 1013.3 988.0 +1.0
09 26.03 З 3 7 баллов 78 988.0
12 26.03 З 5 10 км {ливн. осадки} 9/9 600 м
[Cb cap]
+8.1 +2.4 67 +5 +5 1013.8 988.2 0.0
15 26.03 СЗ 5 5 баллов 64 989.3
18 26.03 СЗ 1 10 км 10/0
[Cs]
+4.8 -0.5 69 +4 +4 1015.8 989.9 +9.2 0.0
21 26.03 штиль 0 ясно 73 990.7

 

Местоположение метеостанции Помошная (Кировоградская область, Украина): широта 48.23 долгота 31.40 высота над уровнем моря 211 м.

В архиве по умолчанию представлена погода в Помошной за последнюю неделю. Архивные данные за месяц целиком и за предыдущие месяцы, начиная с января 2011 года, Вы можете получить, выбрав интересующий диапазон дат из раскрывающегося списка и нажав кнопку "Ввод!".


*Определитесь, кто Вы:
робот инопланетянин человек

Внимание! Время в таблицах - всемирное. Для получения местного времени необходимо прибавить поправку, которая равна 2 ч.

Смотрите также архив погоды в соседних городах и на ближайших метеорологических станциях:

Погода в Первомайске (Николаевская область, Украина) (45 км)
Погода в Бобринце (Кировоградская область, Украина) (58 км)
Погода в Новомиргороде (Кировоградская область, Украина) (63 км)
Погода в Кропивницком (Кировоградская область, Украина) (67 км)
Погода в Вознесенске (Николаевская область, Украина) (74 км)
Погода в Любашевке (Одесская область, Украина) (94 км)
Погода в Звенигородке (Черкасская область, Украина) (101 км)
Погода в Долинской (Кировоградская область, Украина) (102 км)
Погода в Ротмистровке (Черкасская область, Украина) (102 км)
Погода в Умани (Черкасская область, Украина) (105 км)

Пояснения к столбцам:

Ветер - указаны скорость ветра в м/с - средняя за 10 мин, порывы в срок и между сроками (в фигурных скобках) и направление, откуда дует ветер: С - северный, СВ - северо-восточный, В - восточный, ЮВ - юго-восточный, Ю - южный, ЮЗ - юго-западный, З - западный, СЗ - северо-западный.
Видимость - горизонтальная дальность видимости в метрах или километрах. При видимости от 1 до 10 км при отсутствии осадков обычно наблюдается дымка, при ухудшении видимости до 1 км и менее - туман. В сухую погоду видимость может ухудшаться дымом, пылью или мглою.
Явления - указаны атмосферные явления, наблюдавшиеся в срок или в последний час перед сроком; фигурными скобками обозначены явления, наблюдавшиеся между сроками (за 1-3 часа до срока); квадратными скобками обозначены град или гололедные отложения с указанием их диаметра в мм.
Облачность - указаны через наклонную черту общая и нижняя облачность в баллах и высота нижней границы облаков в метрах; квадратными скобками обозначены формы облаков: Ci - перистые, Cs - перисто-слоистые, Cc - перисто-кучевые, Ac - высококучевые, As - высокослоистые, Sc - слоисто-кучевые, Ns - слоисто-дождевые, Cu - кучевые, Cb - кучево-дождевые. Подробнее классификацию облаков см. в Атласе облаков (PDF).
T - Температура воздуха - температура, измеренная на высоте 2 м над землей.
Td - Температура точки росы - температура, при понижении до которой содержащийся в воздухе водяной пар достигнет насыщения.
f - Относительная влажность воздуха - влажноcть воздуха, измеренная на высоте 2 м над землей.
Te - Эффективная температура - температура, которую ощущает одетый по сезону человек в тени. Характеристика душности погоды. При расчете учитывается влияние влажности воздуха и скорости ветра на теплоощущения человека.
Tes - Эффективная температура на солнце - температура, которую ощущает человек, с поправкой на солнечный нагрев. Характеристика знойности погоды. Зависит от высоты солнца над горизонтом, облачности и скорости ветра. Ночью, в пасмурную погоду, а также при ветре 12 м/с и более поправка равна нулю.
P - Атмосферное давление - приведенное к уровню моря атмосферное давление.
Po - Атмосферное давление - измеренное на уровне метеостанции атмосферное давление.
Tmin - Минимальная температура - минимум температуры воздуха на высоте 2 м над землей.
Tmax - Максимальная температура - максимум температуры воздуха на высоте 2 м над землей.
R - Количество осадков - Количество выпавших осадков за период времени, мм. При наведении курсора мыши на число - период времени, за который выпало указанное количество осадков.
R24 - Количество осадков - Количество выпавших осадков за 24 часа, мм.
S - Снежный покров - Высота снежного покрова, см. При наведении курсора мыши на число - состояние снежного покрова и степень покрытия местности в баллах.